Regional Weather Roundup
Issued by NWS

Home | Current Version | Previous Version | Graphics & Text | Print | Product List | Glossary On
Versions: 1 2 3 4 5 6 7 8 9 10 11 12 13 14 15 16 17 18 19 20 21 22 23 24 25 26 27 28 29 30 31 32 33 34 35 36 37 38 39 40 41 42 43 44 45 46 47 48 49 50
000
ASUS43 KDTX 270410
RWRMI
MICHIGAN HOURLY REGIONAL WEATHER ROUNDUP
NATIONAL WEATHER SERVICE DETROIT/PONTIAC MI
ISSUED BY NATIONAL WEATHER SERVICE GRAND RAPIDS MI
1200 AM EDT TUE JUN 27 2017

NOTE: "FAIR" INDICATES FEW OR NO CLOUDS BELOW 12,000 FEET WITH NO
SIGNIFICANT WEATHER AND/OR OBSTRUCTION TO VISIBILITY.

MIZ047>049-052>055-059>063-066>070-074>076-081>083-270500-
SOUTHEAST LOWER MICHIGAN

CITY           SKY/WX    TMP DP  RH WIND       PRES   REMARKS
ADRIAN         CLEAR     56  44  64 W7        30.02S
ALMA           PTCLDY    51  47  85 W6        30.00S
ANN ARBOR      PTCLDY    51  46  83 SW3       30.00R
BAD AXE        MOCLDY    53  48  81 CALM      29.95S
DETROIT CITY   CLOUDY    56  50  80 W5        29.98S
DETROIT        CLOUDY    56  47  71 W9        30.00R
FLINT          MOCLDY    54  46  74 W9        29.98S
GROSSE ILE     CLOUDY    57  48  72 NW8       29.98F
HILLSDALE      CLEAR     52  43  71 W7        30.02S
HOWELL         MOCLDY    53  44  71 W6        30.00S

CITY           SKY/WX    TMP DP  RH WIND       PRES   REMARKS
JACKSON        CLEAR     53  44  71 W7        30.02S
LANSING        CLEAR     54  44  69 W8        30.02R
MASON          CLEAR     53  45  75 W5        30.01S
MONROE         CLOUDY    56  49  78 W5        29.99S
MT. CLEMENS    CLOUDY    56  48  72 W9        29.96R
PONTIAC        MOCLDY    54  48  80 W12       29.97S
PORT HOPE        N/A     57  47  69 W5        29.93R
PORT HURON     CLOUDY    52  46  82 CALM      29.97S
TRI CITIES     PTCLDY    53  48  83 W8        29.98R
YPSILANTI      CLEAR     57  47  69 W10       30.00R
$$
MIZ043>046-050>051-056>058-064>065-071>073-077>080-270500-
SOUTHWEST LOWER MICHIGAN

CITY           SKY/WX    TMP DP  RH WIND       PRES   REMARKS
BATTLE CREEK   CLEAR     50  46  86 W6        30.04S
BENTON HARBOR  MOCLDY    60  46  59 NW7       30.05S
BIG RAPIDS     PTCLDY    51  47  85 NW5       30.00S
COLDWATER      CLEAR     52  44  76 W3        30.04S
HOLLAND        MOCLDY    59  49  69 W7        30.04R
GRAND RAPIDS   MOCLDY    53  48  83 W6        30.02S
KALAMAZOO      CLEAR     52  44  74 W6        30.05S
MARSHALL       CLEAR     48  44  86 W6        30.03S
MOUNT PLEASANT CLOUDY    55  47  76 W9G16     29.98S
MUSKEGON       CLEAR     57  51  80 NW12      30.04R
STURGIS        CLEAR     53  46  76 CALM      30.04S
$$
MIZ016>042-270500-
NORTHERN LOWER MICHIGAN

CITY           SKY/WX    TMP DP  RH WIND       PRES   REMARKS
ALPENA         LGT RAIN  51  49  92 NW7       29.95S
BEAVER ISLAND  CLEAR     53  47  79 NW3       29.99S
BELLAIRE       CLOUDY    52  50  93 CALM      30.00S
CADILLAC       MOCLDY    50  49  95 NW3       30.00R
CHARLEVOIX     CLOUDY    55  47  76 NW5       30.01F
GAYLORD        CLOUDY    51  48  89 VRB3      29.98S
HOUGHTON LAKE  LGT RAIN  50  46  86 N10       30.00R
MANISTEE       FOG       48  46  93 CALM      30.03R VSB 3/4
OSCODA         LGT RAIN  54  49  83 W8        29.94R
PELLSTON       PTCLDY    49  46  90 W3        29.98S
TRAVERSE CITY  CLEAR     51  49  92 CALM      29.99S
LUDINGTON      PTCLDY    50  50  99 CALM      30.03R
$$
MIZ007>008-015-270500-
EASTERN UPPER MICHIGAN

CITY           SKY/WX    TMP DP  RH WIND       PRES   REMARKS
KINROSS        PTCLDY    46  43  89 W7        29.96S
MACKINAC ISLAN PTCLDY    48  47  97 NW7       29.96S
NEWBERRY       CLEAR     46  46  97 W6        29.97S
S. S. MARIE    CLEAR     48  43  82 W6        29.94S
$$
MIZ004>006-011>014-085-270500-
CENTRAL UPPER MICHIGAN

CITY           SKY/WX    TMP DP  RH WIND       PRES   REMARKS
MANISTIQUE     CLEAR     44  41  89 W5        29.98S
ESCANABA       CLEAR     48  47  96 W6        30.00S
MENOMINEE      CLEAR     51  49  92 W3        30.02F
SAWYER-GWINN   CLEAR     49  44  84 W3        30.00S
$$
MIZ001>003-009>011-084-270500-
WESTERN UPPER MICHIGAN

CITY           SKY/WX    TMP DP  RH WIND       PRES   REMARKS
IRON MOUNTAIN  CLEAR     45  42  89 CALM      30.01R
HOUGHTON       PTCLDY    51  45  79 NW8       29.98F
COPPER HARBOR    N/A     55  45  68 VRB7      29.97S
IRONWOOD       CLOUDY    50  48  93 SW3       30.04S
$$

ABBREVIATIONS USED IN REMARKS
   TC - TEMPERATURE IN CELSIUS
  WCI - WIND CHILL INDEX
   HX - HEAT INDEX
  VSB - VISIBILITY




USA.gov is the U.S. government's official web portal to all federal, state and local government web resources and services.